This is the latest recevied weather packets stored in our database for station/object YC0TBU-3. If no packets are shown the sender has not sent any weather packets the latest 10 day(s).
| Time | Temp. | Humidity | Pressure | Rain* | Wind** | Luminosity | Snow |
|---|---|---|---|---|---|---|---|
| 1777757663 | 22.78° C | 60% | 1011.3 hPa | - | - | - | - |
| 1777756958 | 23.33° C | 60% | 1010.1 hPa | - | - | - | - |
| 1777756253 | 23.33° C | 60% | 1010.6 hPa | - | - | - | - |
| 1777755548 | 23.33° C | 59% | 1009.9 hPa | - | - | - | - |
| 1777754843 | 23.33° C | 59% | 1009 hPa | - | - | - | - |
| 1777754138 | 22.78° C | 60% | 1011.4 hPa | - | - | - | - |
| 1777753433 | 23.33° C | 60% | 1010.5 hPa | - | - | - | - |
| 1777752728 | 23.33° C | 60% | 1011.4 hPa | - | - | - | - |
| 1777752023 | 23.33° C | 60% | 1011.2 hPa | - | - | - | - |
| 1777751318 | 23.33° C | 59% | 1012 hPa | - | - | - | - |
| 1777750613 | 23.33° C | 59% | 1010.9 hPa | - | - | - | - |
| 1777749908 | 23.89° C | 58% | 1011.4 hPa | - | - | - | - |
| 1777749203 | 23.89° C | 58% | 1011.8 hPa | - | - | - | - |
| 1777748498 | 24.44° C | 57% | 1013.3 hPa | - | - | - | - |
| 1777747793 | 24.44° C | 56% | 1012.5 hPa | - | - | - | - |
| 1777747088 | 24.44° C | 57% | 1012.1 hPa | - | - | - | - |
| 1777746383 | 24.44° C | 56% | 1013 hPa | - | - | - | - |
| 1777745684 | 24.44° C | 56% | 1013.3 hPa | - | - | - | - |
| 1777744957 | 24.44° C | 56% | 1013.2 hPa | - | - | - | - |
| 1777744252 | 24.44° C | 56% | 1012.1 hPa | - | - | - | - |
| 1777743547 | 24.44° C | 56% | 1011.6 hPa | - | - | - | - |
| 1777742842 | 24.44° C | 55% | 1012.9 hPa | - | - | - | - |
| 1777742137 | 24.44° C | 56% | 1013 hPa | - | - | - | - |
| 1777741432 | 24.44° C | 55% | 1012.7 hPa | - | - | - | - |
| 1777740733 | 25° C | 56% | 1012.7 hPa | - | - | - | - |
* Rain since midnight (hover to see other rain measurements)
** Current wind speed in m/s (hover to see current wind gust speed)